QPF
0.00 0.00 0.00 0.00 0.00 0.00 0.00 0.00 0.00 0.00 0.00 0.00 0.00 0.00 0.00 0.00 0.00 0.00 0.00 0.00 0.00 0.00 0.00 0.00 0.00 0.00 0.00 0.00 0.00 0.00 0.00 0.00 0.00 0.00 0.00 0.00 0.00 0.00 0.00 0.00 0.00 0.00 0.00 0.00 0.00 0.00 0.00 0.00 0.00
0.00 0.00 0.00 0.00 0.00 0.00 0.00 0.00 0.00 0.00 0.00 0.00 0.00 0.00 0.00 0.00 0.00 0.00 0.00 0.00 0.00 0.00 0.00 0.00 0.00 0.00 0.00 0.00 0.00 0.00 0.00 0.00 0.00 0.00 0.00 0.00 0.00 0.00 0.00 0.00 0.00 0.00 0.00 0.00 0.00 0.00 0.00 0.00 0.00
0.00 0.00 0.00 0.00 0.00 0.00 0.00 0.00 0.00 0.00 0.00 0.00 0.00 0.00 0.00 0.00 0.00 0.00 0.00 0.00 0.00 0.00 0.00 0.00 0.00 0.00 0.00 0.00 0.00 0.00 0.00 0.00 0.00 0.00 0.00 0.00 0.00 0.00 0.00 0.00 0.00 0.00 0.00 0.00 0.00 0.00 0.00 0.00 0.00
0.00 0.00 0.00 0.00 0.00 0.00 0.00 0.00 0.00 0.00 0.00 0.00 0.00 0.00 0.00 0.00 0.00 0.00 0.00 0.00 0.00 0.00 0.00 0.00 0.00 0.00 0.00 0.00 0.00 0.00 0.00 0.00 0.00 0.00 0.00 0.00 0.00 0.00 0.00 0.00 0.00 0.00 0.00 0.00 0.00 0.00 0.00 0.00 0.00
0.00 0.00 0.00 0.00 0.00 0.00 0.00 0.00 0.00 0.00 0.00 0.00 0.00 0.00 0.00 0.00 0.00 0.00 0.00 0.00 0.00 0.00 0.00 0.00 0.00 0.00 0.00 0.00 0.00 0.00 0.00 0.00 0.00 0.00 0.00 0.00 0.00 0.00 0.00 0.00 0.00 0.00 0.00 0.00 0.00 0.00 0.00 0.00 0.00
0.00 0.00 0.00 0.00 0.00 0.00 0.00 0.00 0.00 0.00 0.00 0.00 0.00 0.00 0.00 0.00 0.00 0.00 0.00 0.00 0.00 0.00 0.00 0.00 0.00 0.00 0.00 0.00 0.00 0.00 0.00 0.00 0.00 0.00 0.00 0.00 0.00 0.00 0.00 0.00 0.00 0.00 0.00 0.00 0.00 0.00 0.00 0.00 0.00
0.00 0.00 0.00 0.00 0.00 0.00 0.00 0.00 0.00 0.00 0.00 0.00 0.00 0.00 0.00 0.00 0.00 0.00 0.00 0.00 0.00 0.00 0.00 0.00 0.00 0.00 0.00 0.00 0.00 0.00 0.00 0.00 0.00 0.00 0.00 0.00 0.00 0.00 0.00 0.00 0.00 0.00 0.00 0.00 0.00 0.00 0.00 0.00 0.00
0.00 0.00 0.00 0.00 0.00 0.00 0.00 0.00 0.00 0.00 0.00 0.00 0.00 0.00 0.00 0.00 0.00 0.00 0.00 0.00 0.00 0.00 0.00 0.00 0.00 0.00 0.00 0.00 0.00 0.00 0.00 0.00 0.00 0.00 0.00 0.00 0.00 0.00 0.00 0.00 0.00 0.00 0.00 0.00 0.00 0.00 0.00 0.00 0.00
0.00 0.00 0.00 0.00 0.00 0.00 0.00 0.00 0.00 0.00 0.00 0.00 0.00 0.00 0.00 0.00 0.00 0.00 0.00 0.00 0.00 0.00 0.00 0.00 0.00 0.00 0.00 0.00 0.00 0.00 0.00 0.00 0.00 0.00 0.00 0.00 0.00 0.00 0.00 0.00 0.00 0.00 0.00 0.00 0.00 0.00 0.00 0.00 0.00
0.00 0.00 0.00 0.00 0.00 0.00 0.00 0.00 0.00 0.00 0.00 0.00 0.00 0.00 0.00 0.00 0.00 0.00 0.00 0.00 0.00 0.00 0.00 0.00 0.00 0.00 0.00 0.00 0.00 0.00 0.00 0.00 0.00 0.00 0.00 0.00 0.00 0.00 0.00 0.00 0.00 0.00 0.00 0.00 0.00 0.00 0.00 0.00 0.00
0.00 0.00 0.00 0.00 0.00 0.00 0.00 0.00 0.00 0.00 0.00 0.00 0.00 0.00 0.00 0.00 0.00 0.00 0.00 0.00 0.00 0.00 0.00 0.00 0.00 0.00 0.00 0.00 0.00 0.00 0.00 0.00 0.00 0.00 0.00 0.00 0.00 0.00 0.00 0.00 0.00 0.00 0.00 0.00 0.00 0.00 0.00 0.00 0.00
0.00 0.00 0.00 0.00 0.00 0.00 0.00 0.00 0.00 0.00 0.00 0.00 0.00 0.00 0.00 0.00 0.00 0.00 0.00 0.00 0.00 0.00 0.00 0.00 0.00 0.00 0.00 0.00 0.00 0.00 0.00 0.00 0.00 0.00 0.00 0.00 0.00 0.00 0.00 0.00 0.00 0.00 0.00 0.00 0.00 0.00 0.00 0.00 0.00
0.00 0.00 0.00 0.00 0.00 0.00 0.00 0.00 0.00 0.00 0.00 0.00 0.00 0.00 0.00 0.00 0.00 0.00 0.00 0.00 0.00 0.00 0.00 0.00 0.00 0.00 0.00 0.00 0.00 0.00 0.00 0.00 0.00 0.00 0.00 0.00 0.00 0.00 0.00 0.00 0.00 0.00 0.00 0.00 0.00 0.00 0.00 0.00 0.00
0.00 0.00 0.00 0.00 0.00 0.00 0.00 0.00 0.00 0.00 0.00 0.00 0.00 0.00 0.00 0.00 0.00 0.00 0.00 0.00 0.00 0.00 0.00 0.00 0.00 0.00 0.00 0.00 0.00 0.00 0.00 0.00 0.00 0.00 0.00 0.00 0.00 0.00 0.00 0.00 0.00 0.00 0.00 0.00 0.00 0.00 0.00 0.00 0.00
0.00 0.00 0.00 0.00 0.00 0.00 0.00 0.00 0.00 0.00 0.00 0.00 0.00 0.00 0.00 0.00 0.00 0.00 0.00 0.00 0.00 0.00 0.00 0.00 0.00 0.00 0.00 0.00 0.00 0.00 0.00 0.00 0.00 0.00 0.00 0.00 0.00 0.00 0.00 0.00 0.00 0.00 0.00 0.00 0.00 0.00 0.00 0.00 0.00
0.00 0.00 0.00 0.00 0.00 0.00 0.00 0.00 0.00 0.00 0.00 0.00 0.00 0.00 0.00 0.00 0.00 0.00 0.00 0.00 0.00 0.00 0.00 0.00 0.00 0.00 0.00 0.00 0.00 0.00 0.00 0.00 0.00 0.00 0.00 0.00 0.00 0.00 0.00 0.00 0.00 0.00 0.00 0.00 0.00 0.00 0.00 0.00 0.00
0.00 0.00 0.00 0.00 0.00 0.00 0.00 0.00 0.00 0.00 0.00 0.00 0.00 0.00 0.00 0.00 0.00 0.00 0.00 0.00 0.00 0.00 0.00 0.00 0.00 0.00 0.00 0.00 0.00 0.00 0.00 0.00 0.00 0.00 0.00 0.00 0.00 0.00 0.00 0.00 0.00 0.00 0.00 0.00 0.00 0.00 0.00 0.00 0.00
0.00 0.00 0.00 0.00 0.00 0.00 0.00 0.00 0.00 0.00 0.00 0.00 0.00 0.00 0.00 0.00 0.00 0.00 0.00 0.00 0.00 0.00 0.00 0.00 0.00 0.00 0.00 0.00 0.00 0.00 0.00 0.00 0.00 0.00 0.00 0.00 0.00 0.00 0.00 0.00 0.00 0.00 0.00 0.00 0.00 0.00 0.00 0.00 0.00
0.00 0.00 0.00 0.00 0.00 0.00 0.00 0.00 0.00 0.00 0.00 0.00 0.00 0.00 0.00 0.00 0.00 0.00 0.00 0.00 0.00 0.00 0.00 0.00 0.00 0.00 0.00 0.00 0.00 0.00 0.00 0.00 0.00 0.00 0.00 0.00 0.00 0.00 0.00 0.00 0.00 0.00 0.00 0.00 0.00 0.00 0.00 0.00 0.00
0.00 0.00 0.00 0.00 0.00 0.00 0.00 0.00 0.00 0.00 0.00 0.00 0.00 0.00 0.00 0.00 0.00 0.00 0.00 0.00 0.00 0.00 0.00 0.00 0.00 0.00 0.00 0.00 0.00 0.00 0.00 0.00 0.00 0.00 0.00 0.00 0.00 0.00 0.00 0.00 0.00 0.00 0.00 0.00 0.00 0.00 0.00 0.00 0.00
0.00 0.00 0.00 0.00 0.00 0.00 0.00 0.00 0.00 0.00 0.00 0.00 0.00 0.00 0.00 0.00 0.00 0.00 0.00 0.00 0.00 0.00 0.00 0.00 0.00 0.00 0.00 0.00 0.00 0.00 0.00 0.00 0.00 0.00 0.00 0.00 0.00 0.00 0.00 0.00 0.00 0.00 0.00 0.00 0.00 0.00 0.00 0.00 0.00
0.00 0.00 0.00 0.00 0.00 0.00 0.00 0.00 0.00 0.00 0.00 0.00 0.00 0.00 0.00 0.00 0.00 0.00 0.00 0.00 0.00 0.00 0.00 0.00 0.00 0.00 0.00 0.00 0.00 0.00 0.00 0.00 0.00 0.00 0.00 0.00 0.00 0.00 0.00 0.00 0.00 0.00 0.00 0.00 0.00 0.00 0.00 0.00 0.00
0.00 0.00 0.00 0.00 0.00 0.00 0.00 0.00 0.00 0.00 0.00 0.00 0.00 0.00 0.00 0.00 0.00 0.00 0.00 0.00 0.00 0.00 0.00 0.00 0.00 0.00 0.00 0.00 0.00 0.00 0.00 0.00 0.00 0.00 0.00 0.00 0.00 0.00 0.00 0.00 0.00 0.00 0.00 0.00 0.00 0.00 0.00 0.00 0.00
0.00 0.00 0.00 0.00 0.00 0.00 0.00 0.00 0.00 0.00 0.00 0.00 0.00 0.00 0.00 0.00 0.00 0.00 0.00 0.00 0.00 0.00 0.00 0.00 0.00 0.00 0.00 0.00 0.00 0.00 0.00 0.00 0.00 0.00 0.00 0.00 0.00 0.00 0.00 0.00 0.00 0.00 0.00 0.00 0.00 0.01 0.02 0.03 0.03
0.00 0.00 0.00 0.00 0.00 0.00 0.00 0.00 0.00 0.00 0.00 0.00 0.00 0.00 0.00 0.00 0.00 0.00 0.00 0.00 0.00 0.00 0.00 0.00 0.00 0.00 0.00 0.00 0.00 0.00 0.00 0.00 0.00 0.00 0.00 0.00 0.00 0.00 0.00 0.00 0.00 0.00 0.00 0.01 0.00 0.00 0.01 0.03 0.03
0.00 0.00 0.00 0.00 0.00 0.00 0.00 0.00 0.00 0.00 0.00 0.00 0.00 0.00 0.00 0.00 0.00 0.00 0.00 0.00 0.00 0.00 0.00 0.00 0.00 0.00 0.00 0.00 0.00 0.00 0.00 0.00 0.00 0.00 0.00 0.00 0.00 0.00 0.00 0.00 0.00 0.00 0.00 0.01 0.00 0.00 0.00 0.01 0.02
0.00 0.00 0.00 0.00 0.00 0.00 0.00 0.00 0.00 0.00 0.00 0.00 0.00 0.00 0.00 0.00 0.00 0.00 0.00 0.00 0.00 0.00 0.00 0.00 0.00 0.00 0.00 0.00 0.00 0.00 0.00 0.00 0.00 0.00 0.00 0.00 0.00 0.00 0.00 0.00 0.00 0.00 0.00 0.00 0.00 0.00 0.00 0.01 0.02
0.00 0.00 0.00 0.02 0.01 0.00 0.00 0.00 0.00 0.00 0.00 0.00 0.00 0.00 0.00 0.00 0.00 0.00 0.00 0.00 0.00 0.00 0.00 0.00 0.00 0.00 0.00 0.00 0.00 0.00 0.00 0.00 0.00 0.00 0.00 0.00 0.00 0.00 0.00 0.00 0.00 0.00 0.00 0.00 0.00 0.00 0.00 0.02 0.03
0.00 0.00 0.00 0.00 0.00 0.00 0.00 0.00 0.00 0.00 0.00 0.00 0.00 0.00 0.00 0.00 0.00 0.00 0.00 0.00 0.00 0.00 0.00 0.00 0.00 0.00 0.00 0.00 0.00 0.00 0.00 0.00 0.00 0.00 0.00 0.00 0.00 0.00 0.00 0.00 0.00 0.00 0.00 0.00 0.00 0.00 0.00 0.00 0.01
0.00 0.00 0.00 0.00 0.00 0.00 0.00 0.00 0.00 0.00 0.00 0.00 0.00 0.00 0.00 0.00 0.00 0.00 0.00 0.00 0.00 0.00 0.00 0.00 0.00 0.00 0.00 0.00 0.00 0.00 0.00 0.00 0.00 0.00 0.00 0.00 0.00 0.00 0.00 0.00 0.00 0.00 0.00 0.00 0.00 0.00 0.00 0.00 0.00
MSLP
1011.36 1011.47 1011.56 1011.05 1010.84 1009.25 1008.08 1007.75 1007.58 1007.59 1008.04 1008.18 1008.57 1009.19 1009.45 1009.66 1010.11 1011.24 1011.72 1011.96 1012.45 1013.51 1014.42 1015.13 1015.50 1015.77 1015.73 1016.34 1016.62 1016.82 1016.91 1017.13 1017.40 1017.72 1017.96 1018.19 1018.40 1018.60 1018.81 1019.00 1019.28 1019.47 1019.65 1020.01 1020.39 1020.71 1021.01 1021.29 1021.52
1011.30 1011.32 1011.14 1010.52 1009.70 1008.41 1007.76 1007.47 1007.12 1007.37 1007.76 1008.31 1008.64 1008.98 1009.30 1009.74 1010.32 1011.18 1011.78 1012.42 1012.39 1013.16 1014.16 1014.87 1015.49 1015.76 1015.93 1016.32 1016.76 1017.07 1017.28 1017.45 1017.68 1017.81 1018.03 1018.42 1018.67 1018.91 1019.07 1019.29 1019.48 1019.69 1019.94 1020.29 1020.55 1020.87 1021.24 1021.57 1021.80
1011.15 1010.99 1010.69 1010.15 1009.45 1008.26 1007.48 1007.18 1007.05 1007.50 1007.87 1007.94 1008.43 1008.94 1009.16 1009.71 1010.41 1010.96 1011.43 1012.23 1012.74 1013.40 1014.11 1014.77 1015.43 1015.82 1016.07 1016.48 1016.77 1017.17 1017.51 1017.68 1017.92 1018.11 1018.32 1018.62 1018.85 1019.11 1019.27 1019.55 1019.81 1020.04 1020.25 1020.47 1020.72 1021.12 1021.48 1021.75 1021.99
1010.89 1010.83 1011.17 1010.13 1008.87 1008.38 1007.72 1007.24 1007.19 1007.49 1007.82 1007.90 1008.21 1008.78 1009.48 1010.20 1010.28 1010.90 1011.68 1012.39 1012.92 1013.54 1014.17 1015.00 1015.44 1015.90 1016.16 1016.58 1016.92 1017.21 1017.67 1017.94 1018.15 1018.50 1018.69 1018.83 1019.03 1019.28 1019.50 1019.83 1020.11 1020.31 1020.45 1020.69 1021.04 1021.39 1021.74 1021.97 1022.11
1011.17 1011.00 1010.40 1009.77 1008.88 1008.36 1007.96 1007.57 1007.36 1007.19 1007.40 1007.73 1008.00 1008.76 1009.72 1010.63 1011.10 1011.39 1011.96 1012.52 1012.91 1013.77 1014.37 1015.11 1015.51 1015.88 1016.31 1016.65 1017.14 1017.46 1017.80 1018.09 1018.35 1018.72 1018.97 1019.09 1019.25 1019.45 1019.72 1019.98 1020.25 1020.48 1020.65 1020.92 1021.24 1021.63 1021.80 1021.93 1022.16
1010.97 1011.25 1010.39 1009.59 1008.90 1008.46 1008.06 1007.77 1007.31 1007.13 1007.30 1007.64 1008.01 1008.80 1009.99 1011.02 1011.41 1011.83 1012.34 1012.78 1013.19 1013.67 1014.46 1015.07 1015.75 1015.98 1016.34 1016.69 1017.11 1017.62 1018.03 1018.20 1018.47 1018.71 1019.03 1019.35 1019.58 1019.78 1019.94 1020.16 1020.36 1020.71 1020.99 1021.22 1021.50 1021.75 1021.94 1022.17 1022.38
1010.80 1010.88 1010.39 1009.88 1009.19 1008.59 1008.08 1007.78 1007.10 1006.80 1007.07 1007.32 1007.74 1008.63 1010.18 1011.00 1011.66 1012.07 1012.58 1013.21 1013.65 1014.02 1014.55 1015.04 1015.62 1016.22 1016.54 1016.78 1017.20 1017.57 1018.08 1018.40 1018.51 1018.75 1019.03 1019.40 1019.71 1019.99 1020.23 1020.39 1020.49 1020.80 1021.07 1021.45 1021.74 1021.97 1022.12 1022.31 1022.54
1011.19 1010.98 1010.66 1010.09 1009.34 1008.77 1008.45 1007.68 1007.28 1006.92 1006.98 1007.42 1007.60 1008.11 1009.39 1010.38 1011.76 1012.37 1012.93 1013.47 1014.05 1014.42 1014.61 1015.15 1015.58 1016.08 1016.62 1016.92 1017.30 1017.68 1018.06 1018.45 1018.70 1018.89 1019.18 1019.56 1019.81 1020.11 1020.39 1020.64 1020.89 1020.84 1021.07 1021.34 1021.66 1022.02 1022.31 1022.50 1022.60
1011.45 1010.96 1010.50 1009.90 1009.59 1008.99 1008.78 1008.00 1007.46 1007.36 1007.18 1007.45 1007.81 1008.29 1008.99 1010.36 1011.62 1012.37 1012.99 1013.63 1014.12 1014.60 1014.71 1015.04 1015.55 1015.95 1016.46 1016.84 1017.32 1017.84 1018.24 1018.52 1018.88 1019.11 1019.32 1019.70 1019.72 1019.99 1020.38 1020.53 1021.02 1021.20 1021.30 1021.43 1021.64 1021.87 1022.08 1022.41 1022.73
1011.24 1010.68 1010.07 1009.70 1009.44 1009.11 1009.14 1008.61 1007.88 1007.42 1007.29 1007.58 1008.24 1009.22 1009.94 1010.57 1011.20 1011.53 1012.02 1012.73 1013.49 1014.02 1014.43 1014.82 1015.27 1015.72 1016.28 1016.69 1017.18 1017.67 1018.05 1018.44 1018.74 1019.02 1019.23 1019.41 1019.78 1019.99 1020.13 1020.56 1021.01 1021.30 1021.56 1021.86 1021.93 1022.08 1022.18 1022.38 1022.20
1011.31 1010.52 1009.94 1009.46 1009.26 1009.21 1008.92 1008.60 1008.38 1007.62 1007.16 1006.98 1007.49 1008.80 1009.93 1010.42 1010.96 1011.25 1011.44 1011.64 1012.29 1013.41 1014.09 1014.41 1014.93 1015.49 1015.87 1016.21 1016.88 1017.42 1017.73 1018.13 1018.56 1018.82 1019.14 1019.38 1019.77 1020.08 1020.27 1020.55 1020.96 1021.22 1021.68 1021.66 1022.03 1022.30 1022.23 1022.04 1022.02
1011.29 1010.46 1010.04 1009.37 1009.22 1009.07 1008.79 1008.55 1008.06 1007.63 1006.95 1007.13 1007.24 1008.07 1009.22 1009.73 1010.14 1010.41 1010.79 1011.19 1012.07 1012.84 1013.48 1014.14 1014.42 1015.05 1015.56 1015.89 1016.37 1016.79 1017.27 1017.65 1018.01 1018.36 1018.81 1019.17 1019.47 1019.78 1019.97 1020.16 1020.57 1021.02 1021.19 1021.36 1021.55 1021.71 1021.97 1022.25 1022.35
1011.18 1010.44 1009.95 1009.54 1009.36 1008.95 1008.77 1008.30 1008.07 1007.12 1006.78 1007.19 1007.39 1007.94 1008.57 1009.00 1009.30 1010.15 1010.53 1011.13 1011.79 1012.41 1013.10 1013.64 1014.19 1014.58 1015.07 1015.61 1015.91 1016.25 1016.68 1017.16 1017.39 1017.93 1018.32 1018.63 1018.90 1019.39 1019.61 1020.00 1020.44 1020.50 1020.85 1021.08 1021.36 1021.46 1021.61 1021.85 1022.21
1010.73 1010.45 1009.93 1009.46 1009.36 1009.01 1008.54 1007.95 1007.89 1006.67 1006.64 1007.06 1007.64 1007.72 1008.09 1008.39 1008.85 1009.89 1010.26 1010.46 1011.11 1011.72 1012.39 1013.24 1013.73 1014.18 1014.60 1014.93 1015.33 1015.76 1016.15 1016.57 1017.12 1017.49 1017.81 1018.36 1018.55 1018.91 1019.22 1019.59 1019.91 1020.13 1020.47 1020.74 1020.87 1021.07 1021.32 1021.50 1021.83
1010.65 1010.52 1009.79 1009.17 1009.11 1008.72 1008.33 1007.71 1007.06 1006.25 1006.68 1006.93 1007.36 1007.67 1007.89 1008.01 1008.84 1008.86 1008.95 1009.48 1010.03 1010.68 1011.71 1012.52 1013.29 1013.89 1014.29 1014.61 1014.91 1015.33 1015.63 1016.18 1016.56 1016.90 1017.45 1017.80 1018.16 1018.57 1018.90 1019.21 1019.54 1019.72 1020.04 1020.47 1020.81 1021.08 1021.27 1021.34 1021.50
1010.84 1010.51 1009.62 1008.49 1008.47 1008.16 1008.03 1006.25 1006.49 1005.98 1006.43 1006.61 1006.92 1007.30 1007.66 1008.01 1008.01 1008.20 1008.65 1009.01 1009.64 1010.33 1010.80 1011.81 1012.47 1013.18 1013.77 1014.12 1014.52 1014.88 1015.35 1015.78 1015.96 1016.38 1016.83 1017.24 1017.60 1018.01 1018.46 1018.69 1019.00 1019.35 1019.81 1020.14 1020.42 1020.62 1020.94 1021.12 1021.15
1010.71 1009.28 1009.40 1008.86 1008.38 1007.92 1007.61 1006.41 1006.04 1006.07 1006.19 1006.22 1006.52 1006.80 1007.04 1007.30 1007.75 1007.96 1008.22 1008.47 1008.87 1009.35 1010.12 1010.78 1011.53 1011.96 1012.86 1013.60 1013.91 1014.32 1014.73 1015.24 1015.45 1015.91 1016.23 1016.56 1017.02 1017.50 1017.79 1018.03 1018.44 1019.04 1019.32 1019.60 1019.89 1020.31 1020.53 1020.56 1020.77
1009.41 1009.70 1009.40 1008.73 1008.44 1008.06 1007.64 1006.61 1006.14 1006.16 1006.20 1005.69 1005.72 1006.21 1006.56 1006.64 1006.47 1006.59 1007.23 1007.63 1008.03 1008.52 1009.17 1009.87 1010.65 1011.22 1012.05 1012.91 1013.60 1013.97 1014.26 1014.45 1014.67 1014.95 1015.31 1015.87 1016.26 1016.79 1017.27 1017.45 1017.90 1018.48 1018.76 1019.05 1019.34 1019.71 1020.04 1020.18 1020.35
1009.76 1009.63 1008.99 1008.92 1008.62 1008.20 1007.43 1007.08 1006.47 1006.05 1006.26 1006.12 1005.95 1006.10 1006.01 1006.02 1005.78 1006.06 1006.37 1006.75 1007.18 1007.58 1008.25 1008.74 1009.49 1010.07 1011.12 1011.74 1012.35 1012.90 1012.81 1013.36 1013.74 1013.93 1014.44 1014.99 1015.45 1016.04 1016.51 1016.79 1017.42 1017.85 1017.97 1018.30 1018.79 1019.15 1019.50 1019.70 1020.08
1009.92 1009.76 1009.53 1009.34 1009.11 1008.85 1007.76 1006.75 1006.67 1005.94 1005.60 1005.59 1005.43 1005.09 1005.14 1005.38 1005.44 1005.62 1005.66 1005.92 1006.35 1006.31 1006.74 1007.43 1007.96 1008.87 1009.57 1010.22 1010.65 1011.40 1011.85 1012.34 1012.73 1013.21 1013.55 1014.01 1014.53 1015.03 1015.55 1015.88 1016.38 1016.89 1017.24 1017.67 1018.10 1018.55 1018.91 1019.23 1019.55
1009.48 1009.41 1009.40 1009.38 1009.30 1008.87 1008.54 1006.31 1006.10 1005.48 1005.02 1004.79 1004.77 1004.70 1004.55 1004.29 1004.30 1004.48 1004.81 1005.11 1005.53 1005.74 1005.73 1006.08 1006.38 1007.11 1007.95 1008.66 1009.97 1010.82 1011.55 1011.95 1012.20 1012.15 1012.40 1012.63 1013.34 1013.96 1014.54 1014.94 1015.40 1015.93 1016.39 1016.58 1017.16 1017.63 1017.89 1017.98 1018.63
1008.70 1009.18 1009.55 1009.48 1009.79 1008.91 1008.65 1005.91 1004.09 1004.37 1004.01 1003.78 1003.57 1004.02 1004.08 1003.97 1003.77 1003.68 1003.51 1003.91 1004.21 1004.32 1004.78 1005.08 1005.54 1006.28 1007.13 1008.08 1008.80 1009.16 1009.27 1009.77 1009.59 1010.04 1010.81 1011.55 1012.27 1012.90 1013.57 1013.99 1014.54 1015.01 1015.46 1015.77 1016.06 1016.66 1016.95 1017.47 1017.62
1008.37 1009.13 1009.24 1009.43 1009.45 1009.41 1008.61 1007.68 1002.90 1003.48 1002.80 1002.45 1002.91 1003.27 1003.37 1003.27 1003.06 1002.81 1002.75 1002.76 1002.92 1003.91 1004.15 1004.52 1005.06 1005.58 1006.24 1006.84 1007.25 1007.94 1008.45 1008.38 1008.81 1009.52 1010.10 1010.85 1011.46 1011.91 1012.53 1013.06 1013.58 1014.10 1014.58 1014.83 1015.23 1015.79 1016.21 1016.36 1016.52
1008.69 1008.99 1009.05 1009.27 1009.36 1008.38 1007.17 1007.32 1001.39 1002.30 1001.64 1002.08 1002.60 1002.55 1002.52 1002.39 1002.54 1002.37 1002.11 1002.49 1002.40 1003.18 1003.80 1003.95 1004.36 1004.59 1005.32 1005.84 1006.16 1006.53 1006.75 1007.41 1008.12 1008.64 1009.25 1009.87 1010.59 1011.17 1011.67 1012.22 1012.69 1013.11 1013.64 1013.99 1014.35 1014.76 1015.25 1015.62 1015.89
1008.40 1008.74 1008.78 1008.90 1008.71 1006.17 1006.40 1006.43 1002.16 1001.57 1001.69 1001.74 1001.83 1001.79 1001.93 1001.84 1001.95 1001.93 1001.95 1002.27 1002.16 1002.51 1002.93 1003.46 1003.74 1003.97 1004.29 1004.87 1005.26 1005.55 1005.93 1006.52 1006.85 1007.54 1008.14 1008.94 1009.60 1010.22 1010.58 1011.25 1011.79 1012.14 1012.57 1013.06 1013.56 1014.00 1014.28 1014.60 1014.88
1007.40 1007.56 1007.58 1006.97 1006.73 1005.56 1006.14 1004.44 1000.98 1002.03 1001.79 1001.52 1001.38 1001.37 1001.46 1001.42 1001.49 1001.59 1001.53 1001.84 1002.05 1002.53 1002.83 1003.01 1003.19 1003.20 1003.63 1004.04 1004.14 1004.54 1005.16 1005.66 1006.15 1006.67 1007.23 1007.87 1008.43 1009.16 1009.79 1010.37 1010.85 1011.29 1011.79 1012.30 1012.72 1013.09 1013.39 1013.71 1013.99
1007.09 1007.26 1006.43 1007.08 1007.07 1006.08 1004.91 1003.65 1002.29 1001.26 1001.07 1000.68 1000.79 1000.72 1000.90 1000.92 1000.75 1000.98 1001.38 1001.44 1001.67 1001.82 1001.78 1002.11 1002.35 1002.43 1002.67 1002.79 1003.37 1003.74 1004.36 1004.83 1005.15 1005.78 1006.59 1007.22 1007.85 1008.44 1008.98 1009.60 1010.01 1010.44 1010.96 1011.44 1011.85 1012.19 1012.54 1012.91 1013.18
1006.38 1006.50 1007.08 1007.27 1006.66 1005.74 1004.57 1003.01 1001.50 1000.59 1000.31 1000.25 1000.11 1000.23 1000.34 1000.59 1000.67 1000.83 1000.81 1001.07 1001.18 1001.15 1001.11 1001.28 1001.31 1001.18 1001.38 1001.82 1002.29 1002.62 1003.11 1003.94 1004.61 1005.44 1005.95 1006.47 1007.17 1007.75 1008.31 1008.86 1009.26 1009.73 1010.15 1010.65 1011.11 1011.49 1011.86 1012.22 1012.51
1006.68 1006.49 1006.52 1006.43 1006.15 1005.26 1004.07 1001.98 1001.79 1000.97 1000.75 1000.58 1000.01 1000.09 1000.52 1000.37 1000.48 1000.56 1000.47 1000.49 1000.32 1000.20 1000.25 1000.22 1000.58 1000.66 1000.68 1000.95 1001.25 1001.90 1002.42 1003.19 1004.10 1004.70 1005.09 1005.67 1006.41 1006.97 1007.57 1008.07 1008.63 1009.06 1009.52 1010.08 1010.58 1010.94 1011.27 1011.56 1011.91
1006.86 1006.53 1006.56 1006.48 1005.61 1004.86 1003.84 1001.45 1001.48 1001.17 1000.42 1000.29 1000.58 1000.25 1000.54 1000.57 1000.53 1000.23 1000.28 1000.07 999.87 999.94 999.90 999.67 999.94 1000.04 1000.26 1000.58 1000.63 1001.45 1002.02 1002.81 1003.45 1003.92 1004.50 1005.22 1005.86 1006.51 1007.01 1007.63 1008.16 1008.69 1009.19 1009.61 1010.04 1010.26 1010.70 1011.09 1011.37
Thickness
5806 5807 5807 5806 5790 5791 5787 5793 5798 5797 5794 5806 5807 5794 5791 5792 5783 5770 5791 5793 5788 5779 5770 5762 5758 5753 5752 5746 5743 5741 5739 5736 5733 5730 5728 5726 5724 5722 5719 5718 5715 5713 5711 5709 5706 5703 5702 5701 5700
5805 5806 5804 5795 5785 5780 5789 5795 5799 5804 5808 5807 5805 5799 5793 5788 5796 5789 5788 5790 5789 5782 5773 5766 5760 5755 5751 5748 5744 5740 5738 5735 5734 5732 5730 5726 5724 5722 5720 5717 5715 5713 5712 5709 5708 5706 5703 5701 5700
5804 5806 5797 5785 5771 5779 5785 5798 5807 5808 5810 5809 5802 5805 5800 5794 5798 5796 5800 5794 5788 5781 5774 5769 5762 5756 5752 5748 5745 5742 5738 5736 5733 5732 5729 5727 5725 5723 5721 5719 5715 5713 5711 5710 5709 5706 5704 5703 5701
5799 5798 5788 5781 5779 5785 5791 5803 5808 5806 5810 5812 5809 5797 5805 5807 5804 5804 5801 5794 5788 5781 5775 5769 5764 5758 5754 5749 5745 5743 5739 5736 5733 5729 5728 5727 5725 5724 5722 5719 5715 5713 5711 5710 5708 5707 5704 5703 5702
5791 5784 5773 5770 5774 5783 5793 5803 5807 5807 5810 5809 5812 5797 5797 5803 5805 5803 5798 5794 5789 5781 5775 5768 5764 5760 5754 5750 5745 5742 5739 5737 5734 5730 5727 5726 5725 5724 5722 5719 5717 5715 5713 5711 5709 5706 5706 5706 5704
5779 5773 5764 5768 5771 5781 5793 5801 5807 5810 5812 5809 5807 5801 5798 5802 5801 5800 5797 5792 5788 5783 5775 5769 5763 5759 5755 5751 5746 5742 5738 5737 5735 5733 5729 5725 5724 5723 5721 5720 5718 5715 5713 5711 5709 5707 5707 5706 5704
5769 5765 5759 5759 5765 5773 5790 5802 5805 5811 5810 5808 5817 5797 5797 5798 5801 5800 5795 5790 5785 5781 5775 5771 5764 5758 5754 5751 5747 5744 5739 5735 5735 5734 5731 5728 5724 5722 5720 5719 5719 5717 5715 5711 5708 5707 5707 5706 5704
5764 5762 5749 5756 5765 5772 5786 5798 5807 5810 5810 5821 5823 5803 5799 5806 5800 5798 5793 5788 5782 5779 5776 5770 5765 5760 5754 5750 5747 5744 5739 5736 5734 5733 5730 5728 5726 5723 5720 5718 5717 5718 5717 5715 5712 5708 5705 5705 5704
5760 5750 5747 5758 5757 5772 5783 5788 5805 5812 5810 5815 5817 5817 5816 5809 5801 5795 5788 5783 5780 5776 5775 5771 5766 5761 5756 5751 5747 5743 5738 5736 5733 5731 5729 5727 5726 5725 5722 5720 5717 5716 5716 5715 5713 5711 5709 5705 5703
5751 5748 5754 5767 5768 5771 5774 5781 5790 5798 5803 5806 5808 5806 5807 5805 5800 5797 5793 5787 5782 5778 5776 5774 5768 5764 5758 5753 5748 5743 5739 5735 5733 5731 5729 5727 5725 5725 5724 5721 5718 5716 5714 5711 5711 5709 5708 5706 5705
5738 5746 5757 5766 5771 5773 5775 5780 5786 5791 5792 5809 5811 5804 5802 5802 5799 5797 5797 5797 5792 5784 5779 5777 5771 5766 5761 5757 5752 5746 5743 5738 5735 5733 5730 5728 5725 5723 5722 5720 5717 5714 5712 5712 5710 5707 5706 5707 5706
5729 5745 5753 5765 5768 5769 5770 5778 5782 5788 5800 5810 5818 5815 5806 5804 5802 5801 5799 5797 5792 5787 5782 5778 5775 5768 5763 5759 5756 5752 5747 5743 5739 5737 5733 5730 5727 5724 5723 5722 5719 5716 5714 5713 5712 5710 5708 5705 5703
5721 5737 5747 5758 5759 5764 5766 5772 5775 5788 5804 5807 5812 5810 5808 5808 5808 5804 5802 5798 5792 5788 5784 5780 5776 5772 5766 5761 5758 5755 5752 5746 5744 5740 5737 5734 5731 5727 5724 5722 5718 5718 5715 5713 5711 5710 5710 5708 5704
5720 5727 5739 5749 5751 5755 5760 5768 5770 5791 5798 5799 5800 5804 5807 5808 5807 5801 5799 5799 5795 5792 5787 5782 5778 5773 5768 5765 5761 5758 5754 5750 5745 5742 5740 5736 5733 5729 5726 5723 5720 5718 5715 5713 5712 5711 5709 5707 5704
5712 5711 5728 5740 5744 5748 5755 5753 5757 5792 5790 5790 5793 5797 5801 5804 5802 5804 5807 5805 5802 5798 5791 5784 5778 5774 5770 5767 5763 5759 5756 5751 5748 5745 5741 5738 5735 5731 5728 5724 5721 5719 5716 5713 5710 5708 5706 5705 5703
5696 5700 5706 5736 5739 5748 5747 5748 5764 5787 5781 5785 5788 5790 5793 5796 5802 5806 5806 5806 5804 5799 5793 5788 5783 5777 5772 5769 5765 5761 5756 5752 5750 5747 5743 5740 5737 5733 5729 5726 5723 5719 5715 5712 5709 5707 5705 5702 5702
5681 5697 5691 5711 5729 5732 5734 5742 5765 5775 5773 5778 5782 5786 5789 5794 5796 5801 5804 5806 5805 5802 5797 5791 5788 5785 5777 5771 5768 5764 5759 5754 5752 5748 5746 5743 5739 5734 5731 5728 5724 5719 5716 5713 5709 5705 5703 5703 5700
5684 5675 5683 5699 5716 5717 5720 5731 5753 5759 5762 5775 5781 5781 5782 5788 5799 5808 5804 5807 5807 5803 5801 5797 5791 5787 5781 5774 5768 5764 5761 5760 5757 5754 5751 5745 5741 5737 5733 5730 5725 5718 5716 5713 5710 5706 5703 5701 5698
5675 5674 5684 5689 5701 5706 5714 5719 5734 5751 5748 5753 5764 5768 5775 5783 5799 5803 5803 5806 5806 5806 5801 5800 5794 5791 5783 5778 5773 5768 5768 5765 5762 5760 5756 5750 5745 5740 5735 5731 5725 5719 5718 5715 5710 5707 5702 5699 5695
5656 5657 5663 5675 5682 5684 5696 5710 5716 5736 5744 5753 5761 5771 5777 5782 5791 5794 5799 5802 5804 5809 5808 5803 5801 5795 5791 5787 5783 5778 5774 5770 5767 5763 5760 5756 5750 5745 5740 5736 5731 5725 5720 5716 5711 5706 5701 5697 5693
5643 5647 5657 5662 5668 5676 5673 5695 5705 5727 5740 5750 5758 5769 5776 5783 5790 5796 5796 5797 5799 5804 5809 5808 5808 5804 5798 5793 5784 5777 5773 5770 5766 5767 5765 5765 5757 5751 5746 5741 5736 5730 5725 5721 5714 5709 5704 5700 5694
5630 5649 5646 5647 5638 5641 5661 5665 5714 5722 5734 5746 5763 5762 5766 5775 5784 5792 5800 5799 5801 5805 5809 5809 5809 5803 5798 5791 5785 5782 5782 5778 5782 5779 5773 5767 5760 5754 5749 5745 5739 5734 5729 5725 5720 5713 5708 5701 5695
5625 5635 5634 5631 5627 5625 5637 5635 5708 5718 5724 5748 5756 5757 5763 5770 5779 5787 5795 5801 5807 5801 5802 5803 5802 5800 5797 5794 5791 5785 5781 5785 5782 5777 5772 5767 5760 5756 5750 5746 5741 5736 5731 5727 5723 5716 5710 5706 5701
5617 5613 5618 5617 5609 5589 5637 5630 5698 5712 5730 5740 5745 5752 5762 5769 5771 5778 5790 5790 5798 5797 5794 5798 5797 5798 5794 5793 5791 5788 5787 5783 5778 5775 5771 5767 5762 5756 5751 5745 5742 5737 5732 5728 5724 5720 5713 5707 5702
5593 5592 5581 5576 5577 5598 5647 5619 5677 5709 5724 5732 5741 5751 5755 5762 5765 5770 5777 5778 5785 5787 5787 5786 5790 5790 5791 5789 5787 5787 5786 5781 5780 5776 5773 5766 5762 5757 5753 5747 5742 5739 5734 5729 5724 5719 5715 5709 5704
5588 5594 5581 5577 5596 5614 5620 5603 5676 5701 5720 5732 5739 5743 5748 5753 5758 5762 5771 5773 5775 5776 5776 5778 5779 5784 5786 5786 5786 5786 5783 5780 5778 5775 5773 5767 5763 5758 5753 5748 5744 5739 5734 5728 5723 5719 5715 5710 5705
5577 5564 5614 5585 5584 5587 5602 5630 5669 5696 5696 5718 5725 5734 5741 5749 5754 5757 5760 5767 5769 5772 5775 5775 5775 5779 5783 5786 5783 5781 5779 5777 5777 5775 5769 5764 5759 5755 5751 5746 5743 5738 5733 5727 5722 5718 5713 5707 5703
5570 5593 5565 5562 5555 5562 5587 5614 5636 5680 5692 5706 5717 5723 5733 5738 5741 5744 5751 5756 5761 5766 5770 5772 5775 5780 5783 5783 5781 5780 5779 5774 5772 5767 5762 5759 5754 5750 5746 5742 5739 5735 5730 5724 5718 5713 5709 5703 5699
5557 5558 5565 5573 5572 5560 5574 5600 5648 5667 5680 5684 5703 5716 5712 5724 5729 5734 5740 5746 5753 5761 5765 5770 5770 5773 5778 5778 5777 5775 5774 5770 5764 5760 5758 5755 5750 5747 5742 5738 5733 5730 5725 5719 5713 5708 5704 5699 5695
5551 5554 5558 5546 5565 5575 5573 5591 5647 5657 5671 5680 5679 5692 5701 5707 5714 5725 5730 5739 5745 5750 5756 5763 5764 5767 5769 5768 5770 5766 5766 5761 5757 5755 5751 5748 5743 5740 5736 5731 5726 5721 5716 5712 5707 5703 5698 5692 5688